Location: Buckland
(65.9785°N, 161.1281°W)
Time: 22:35:31
(UTC+00:00)

SR - Visible Passes

Search period start: 05 December 2020 00:00
Search period end: 15 December 2020 00:00
Orbit: 579 x 877 km, 66.7° (Epoch: 04 December)

Date Brightness Start Highest point End Pass type
(mag) Time Alt. Az. Time Alt. Az. Time Alt. Az.
05 Dec ? 03:09:43 10° SE 03:11:56 13° ESE 03:12:56 13° E visible
05 Dec ? 04:48:28 10° SSW 04:52:21 38° SE 04:52:21 38° SE visible
05 Dec ? 06:29:44 10° WSW 06:31:45 26° WSW 06:31:45 26° WSW visible
06 Dec ? 03:59:24 10° S 04:03:18 28° SE 04:04:06 26° ESE visible
06 Dec ? 05:40:06 10° SW 05:43:31 48° SSW 05:43:31 48° SSW visible
06 Dec ? 07:21:59 10° W 07:22:56 16° W 07:22:56 16° W visible
07 Dec ? 03:10:42 10° SSE 03:13:59 19° ESE 03:15:51 16° E visible
07 Dec ? 04:50:36 10° SW 04:55:06 51° SE 04:55:15 51° SE visible
07 Dec ? 06:32:13 10° WSW 06:34:40 31° WSW 06:34:40 31° WSW visible
08 Dec ? 02:22:41 10° SE 02:24:47 13° ESE 02:26:56 10° E visible
08 Dec ? 04:01:18 10° SSW 04:05:33 38° SE 04:06:57 31° E visible
08 Dec ? 05:42:30 10° WSW 05:46:21 59° SW 05:46:21 59° SW visible
08 Dec ? 07:24:33 10° W 07:25:45 18° W 07:25:45 18° W visible
09 Dec ? 03:12:15 10° S 03:16:08 27° SE 03:18:36 18° E visible
09 Dec ? 04:52:53 10° SW 04:57:32 65° SSE 04:58:01 61° ESE visible
09 Dec ? 06:34:46 10° W 06:37:25 34° W 06:37:25 34° W visible
10 Dec ? 02:23:36 10° SSE 02:26:50 19° ESE 02:30:14 10° ENE visible
10 Dec ? 04:03:23 10° SW 04:07:54 50° SE 04:09:40 34° E visible
10 Dec ? 05:45:00 10° WSW 05:49:03 65° WSW 05:49:03 65° WSW visible
10 Dec ? 07:27:05 10° W 07:28:27 19° W 07:28:27 19° W visible
11 Dec ? 03:14:06 10° SSW 03:18:23 37° SE 03:21:16 20° ENE visible
11 Dec ? 04:55:17 10° WSW 05:00:02 79° SSE 05:00:41 66° E visible
11 Dec ? 06:37:18 10° W 06:40:05 35° W 06:40:05 35° W visible
11 Dec ? 08:19:23 10° WNW 08:19:29 11° WNW 08:19:29 11° WNW visible
12 Dec ? 02:25:06 10° S 02:28:58 26° ESE 02:32:53 11° ENE visible
12 Dec ? 04:05:40 10° SW 04:10:20 64° SSE 04:12:18 36° E visible
12 Dec ? 05:47:31 10° W 05:51:41 66° W 05:51:41 66° W visible
12 Dec ? 07:29:37 10° WNW 07:31:06 20° WNW 07:31:06 20° WNW visible
13 Dec ? 03:16:11 10° SSW 03:20:43 49° SE 03:23:54 20° ENE visible
13 Dec ? 04:57:45 10° WSW 05:02:35 89° SSE 05:03:17 67° ENE visible
13 Dec ? 06:39:51 10° W 06:42:41 36° WNW 06:42:41 36° WNW visible
13 Dec ? 08:21:53 10° WNW 08:22:05 11° WNW 08:22:05 11° WNW visible
14 Dec ? 02:26:55 10° SSW 02:31:11 36° SE 02:35:29 12° ENE visible
14 Dec ? 04:08:02 10° WSW 04:12:49 78° SSE 04:14:53 37° ENE visible
14 Dec ? 05:50:04 10° W 05:54:17 65° WNW 05:54:17 65° WNW visible
14 Dec ? 07:32:08 10° WNW 07:33:41 20° WNW 07:33:41 20° WNW visible
